APRIZESAT 1

Last updated on Fri Jun 19 2026 20:04:31 GMT+0000 (Coordinated Universal Time)

1 28372U 04025G 26170.56911137 .00000169 00000+0 53502-4 0 9996 2 28372 98.6302 181.3595 0045234 146.7150 213.6903 14.51778047162250
UTC large
Height (km)
Speed (km/s)
/
Latitude / Longitude
Inclination (degrees)
Orbital Period (minutes)
Azimuth
Elevation
Range (km)
Doppler Factor

Next 0 passes for location: London (51.5072 / 0.1276)

Sorry there are no passes over London.
APRIZESAT 1